Weather History for Whidbey Island, WA

Change the Weather History Date:

Friday, October 19, 2012

  Actual Average Record
Temperature  
Mean Temperature 52 °F -  
Max Temperature 57 °F 54 °F 63 °F (2003)
Min Temperature 46 °F 41 °F 34 °F (2008)
Degree Days  
Heating Degree Days 14    
Growing Degree Days 2 (Base 50)    
Moisture  
Dew Point 46 °F    
Average Humidity 81    
Maximum Humidity 89    
Minimum Humidity 71    
Precipitation  
Precipitation 0.06 in - - ()
Sea Level Pressure  
Sea Level Pressure 29.78 in    
Wind  
Wind Speed 14 mph (WSW)    
Max Wind Speed 20 mph    
Max Gust Speed 28 mph    
Visibility 9 miles    
Events Rain    
Averages and records for this station are not official NWS values.
T = Trace of Precipitation, MM = Missing Value Source: NWS Daily Summary

Daily Weather History Graph

Daily Weather History Graph

Search for Another Location

Airport:

Trip Planner

Search our weather history database for the weather conditions in past years. The results will help you decide how hot, cold, wet, or windy it might be!

Date:

Astronomy

Oct. 19, 2012 Rise Set
Actual Time 7:37 AM PDT 6:12 PM PDT
Civil Twilight 7:05 AM PDT 6:44 PM PDT
Nautical Twilight 6:29 AM PDT 7:20 PM PDT
Astronomical Twilight 5:52 AM PDT 7:56 PM PDT
Moon 12:42 PM PDT 9:41 PM PDT
Length of Visible Light 11h 39m
Length of Day
10h 35m
Waxing Crescent, 24% of the Moon is Illuminated
Oct 19
Waxing Crescent
Oct 21
First Quarter
Oct 29
Full
Nov 6
Last Quarter
Nov 13
New

Hourly Weather History & Observations

Time (PDT) Temp. Dew Point Humidity Pressure Visibility Wind Dir Wind Speed Gust Speed Precip Events Conditions
12:56 AM 54.0 °F 50.0 °F 86% 29.74 in 10.0 mi ESE 15.0 mph - N/A   Overcast
1:56 AM 54.0 °F 50.0 °F 86% 29.73 in 10.0 mi SE 12.7 mph 20.7 mph N/A   Mostly Cloudy
2:56 AM 54.0 °F 50.0 °F 86% 29.72 in 10.0 mi SE 19.6 mph 27.6 mph N/A   Overcast
3:56 AM 55.0 °F 52.0 °F 89% 29.72 in 10.0 mi SSE 19.6 mph 26.5 mph N/A   Overcast
4:56 AM 57.0 °F 53.1 °F 87% 29.73 in 10.0 mi SSE 16.1 mph - N/A   Overcast
5:56 AM 57.0 °F 53.1 °F 87% 29.75 in 10.0 mi South 11.5 mph - N/A   Overcast
6:46 AM 53.6 °F 48.2 °F 82% 29.75 in 8.0 mi SSW 16.1 mph 21.9 mph 0.00 in Rain Light Rain
6:56 AM 53.1 °F 48.9 °F 86% 29.77 in 7.0 mi SSW 12.7 mph - 0.00 in Rain Light Rain
7:37 AM 51.8 °F 48.2 °F 88% 29.77 in 7.0 mi SW 12.7 mph - 0.00 in Rain Light Rain
7:56 AM 52.0 °F 48.0 °F 86% 29.78 in 8.0 mi West 12.7 mph - 0.00 in   Overcast
8:56 AM 52.0 °F 46.9 °F 83% 29.79 in 9.0 mi West 8.1 mph - N/A   Overcast
9:56 AM 51.1 °F 46.0 °F 83% 29.81 in 8.0 mi West 16.1 mph 19.6 mph N/A   Overcast
10:56 AM 51.1 °F 46.0 °F 83% 29.82 in 10.0 mi West 15.0 mph - N/A   Overcast
11:56 AM 51.1 °F 45.0 °F 80% 29.83 in 10.0 mi West 10.4 mph - N/A   Overcast
12:56 PM 51.8 °F 44.6 °F 76% 29.82 in 10.0 mi WSW 10.4 mph - 0.00 in Rain Light Rain
1:56 PM 51.1 °F 44.1 °F 77% 29.81 in 10.0 mi WNW 11.5 mph 20.7 mph 0.00 in Rain Light Rain
2:56 PM 52.0 °F 43.0 °F 71% 29.81 in 10.0 mi WNW 11.5 mph - 0.00 in   Overcast
3:35 PM 51.8 °F 42.8 °F 71% 29.79 in 10.0 mi West 8.1 mph - 0.00 in Rain Light Rain
3:56 PM 50.0 °F 43.0 °F 77% 29.80 in 8.0 mi West 9.2 mph - 0.01 in Rain Light Rain
4:56 PM 50.0 °F 44.1 °F 80% 29.79 in 10.0 mi West 13.8 mph 19.6 mph 0.01 in Rain Light Rain
5:22 PM 51.8 °F 42.8 °F 71% 29.76 in 10.0 mi West 19.6 mph - 0.00 in   Overcast
5:56 PM 50.0 °F 43.0 °F 77% 29.77 in 10.0 mi West 13.8 mph - 0.00 in   Mostly Cloudy
6:56 PM 48.9 °F 42.1 °F 77% 29.77 in 10.0 mi West 9.2 mph - N/A   Mostly Cloudy
7:56 PM 50.0 °F 43.0 °F 77% 29.77 in 10.0 mi WSW 5.8 mph - 0.00 in Rain Light Rain
8:56 PM 48.0 °F 42.1 °F 80% 29.79 in 6.0 mi West 13.8 mph - 0.04 in Rain Light Rain
9:56 PM 46.9 °F 42.1 °F 83% 29.78 in 8.0 mi WSW 8.1 mph - N/A Rain Light Rain
10:56 PM 46.9 °F 41.0 °F 80% 29.78 in 10.0 mi West 11.5 mph - N/A   Mostly Cloudy
11:56 PM 48.0 °F 42.1 °F 80% 29.81 in 10.0 mi West 11.5 mph - N/A   Mostly Cloudy